Home > Weather > Lautoka > Past weeks

Flag for Fiji Weather for the Past 2 Weeks in Lautoka, Fiji

Now
81 °F

Passing clouds.


Feels Like: 87 °F
Forecast: 83 / 91 °F
Wind: 5 mph from East

Location: Nandi

Current Time: Feb 9, 2016 at 1:41:28 AM

Latest Report: Feb 9, 2016 at 1:00 AM


Visibility: N/A

Pressure: 29.74 "Hg

Humidity: 89%

Dew point: 77 °F

Location of LautokaLocation

Historic Weather in Lautoka — Graph

°F

Lautoka Temperature Yesterday

Maximum temperature yesterday: 91 °F (at 3:00 PM)
Minimum temperature yesterday: 79 °F (at 4:00 AM)
Average temperature yesterday: 85 °F

High & Low Weather Summary for the Past Weeks

 TemperatureHumidityPressure
High95 °F (Feb 5, 3:00 PM)100% (Feb 1, 5:00 AM)29.95 "Hg (Feb 1, 5:00 AM)
Low73 °F (Jan 25, 4:00 AM)47% (Feb 5, 4:00 PM)29.71 "Hg (Feb 5, 2:00 PM)
Average83 °F78%29.82 "Hg
* Reported Midnight between Jan 24 and Jan 25 — Midnight between Feb 8 and Feb 9, Lautoka, Weather by CustomWeather, © 2016

Note: Actual official high and low records may vary slightly from our data, if they occured in-between our weather recording intervals... More about our weather records

Advertising

Lautoka Weather History for the Previous 24 Hours

 ConditionsComfort  
Time TempWeatherWind HumidityBarometerVisibility
12:00 AM
Tue, Feb 9
81 °FPassing clouds.3 mph89%29.77 "HgN/A
11:00 PM
Mon, Feb 8
82 °FPassing clouds.5 mph84%29.80 "HgN/A
10:00 PM82 °FPassing clouds.6 mph84%29.80 "HgN/A
9:00 PM82 °FPassing clouds.5 mph79%29.77 "HgN/A
8:00 PM84 °FPassing clouds.6 mph84%29.77 "HgN/A
7:00 PM88 °FPartly cloudy.7 mph70%29.74 "HgN/A
6:00 PM90 °FBroken clouds.13 mph71%29.71 "HgN/A
5:00 PM91 °FPartly sunny.15 mph63%29.71 "HgN/A
4:00 PM91 °FPartly sunny.13 mph63%29.71 "HgN/A
3:00 PM91 °FPartly sunny.14 mph67%29.71 "Hg31 mi
2:00 PM90 °FScattered clouds.12 mph71%29.74 "HgN/A
1:00 PM90 °FScattered clouds.10 mph71%29.77 "HgN/A
12:00 PM90 °FScattered clouds.12 mph63%29.80 "HgN/A
11:00 AM90 °FPassing clouds.12 mph67%29.80 "HgN/A
10:00 AM90 °FPassing clouds.6 mph67%29.80 "HgN/A
9:00 AM86 °FScattered clouds.5 mph79%29.80 "HgN/A
8:00 AM86 °FScattered clouds.5 mph75%29.80 "HgN/A
7:00 AM81 °FScattered clouds.5 mph84%29.80 "HgN/A
6:00 AM79 °FScattered clouds.6 mph89%29.80 "HgN/A
5:00 AM79 °FPassing clouds.6 mph89%N/AN/A
4:00 AM79 °FPassing clouds.5 mph94%29.77 "HgN/A
3:00 AM81 °FPassing clouds.5 mph89%29.77 "HgN/A
2:00 AM81 °FPassing clouds.5 mph89%29.80 "HgN/A
1:00 AM81 °FPassing clouds.6 mph89%29.80 "HgN/A
Weather by CustomWeather, © 2016

See weather overviewHow to use our weather pages